This is the latest recevied weather packets stored in our database for station/object KB5DPX. If no packets are shown the sender has not sent any weather packets the latest 10 day(s).
| Time | Temp. | Humidity | Pressure | Rain* | Wind** | Luminosity | Snow |
|---|---|---|---|---|---|---|---|
| 1787778784 | 23.33° C | 74% | 1009 hPa | 0 mm | - | 519 W/m² | - |
| 1787778491 | 23.33° C | 74% | 1008.9 hPa | 0 mm | - | 563 W/m² | - |
| 1787778181 | 23.33° C | 75% | 1008.9 hPa | 0 mm | - | 531 W/m² | - |
| 1787777887 | 22.78° C | 77% | 1008.9 hPa | 0 mm | - | 522 W/m² | - |
| 1787777578 | 22.22° C | 78% | 1009 hPa | 0 mm | - | 636 W/m² | - |
| 1787777285 | 22.78° C | 77% | 1009.1 hPa | 0 mm | - | 167 W/m² | - |
| 1787776994 | 22.78° C | 77% | 1009.1 hPa | 0 mm | - | 668 W/m² | - |
| 1787776684 | 22.78° C | 77% | 1009.2 hPa | 0 mm | - | 394 W/m² | - |
| 1787776393 | 22.22° C | 80% | 1009.3 hPa | 0 mm | - | 698 W/m² | - |
| 1787776079 | 22.22° C | 80% | 1009.4 hPa | 0 mm | - | 163 W/m² | - |
| 1787775781 | 22.78° C | 79% | 1009.4 hPa | 0 mm | - | 207 W/m² | - |
| 1787775497 | 22.78° C | 78% | 1009.3 hPa | 0 mm | - | 134 W/m² | - |
| 1787775185 | 22.78° C | 80% | 1009.3 hPa | 0 mm | - | 705 W/m² | - |
| 1787774894 | 22.78° C | 83% | 1009.3 hPa | 0 mm | - | 759 W/m² | - |
| 1787774583 | 22.22° C | 85% | 1009.2 hPa | 0 mm | - | 733 W/m² | - |
| 1787774293 | 21.67° C | 86% | 1009.2 hPa | 0 mm | - | 178 W/m² | - |
| 1787773999 | 21.67° C | 86% | 1009.2 hPa | 0 mm | - | 202 W/m² | - |
| 1787773687 | 21.67° C | 85% | 1009.2 hPa | 0 mm | - | 169 W/m² | - |
| 1787773396 | 21.67° C | 85% | 1009.2 hPa | 0 mm | - | 137 W/m² | - |
| 1787773085 | 21.67° C | 85% | 1009.2 hPa | 0 mm | - | 151 W/m² | - |
| 1787772793 | 21.67° C | 81% | 1009.1 hPa | 0.25 mm | - | 220 W/m² | - |
| 1787772482 | 21.11° C | 77% | 1009 hPa | 0.25 mm | - | 265 W/m² | - |
| 1787772187 | 21.11° C | 76% | 1009 hPa | 0.51 mm | - | 234 W/m² | - |
| 1787771879 | 21.11° C | 76% | 1009 hPa | 1.02 mm | - | 327 W/m² | - |
| 1787771589 | 21.11° C | 72% | 1008.9 hPa | 1.02 mm | - | 962 W/m² | - |
* Rain latest hour (hover to see other rain measurements)
** Current wind speed in m/s (hover to see current wind gust speed)